地点,時刻,積雪(cm)
沖揚平,2022/02/26 23:00,274
沖揚平,2022/02/27 00:00,273
沖揚平,2022/02/27 01:00,274
沖揚平,2022/02/27 02:00,274
沖揚平,2022/02/27 03:00,273
沖揚平,2022/02/27 04:00,272
沖揚平,2022/02/27 05:00,272
沖揚平,2022/02/27 06:00,271
沖揚平,2022/02/27 07:00,270
沖揚平,2022/02/27 08:00,274
沖揚平,2022/02/27 09:00,280
沖揚平,2022/02/27 10:00,279
沖揚平,2022/02/27 11:00,280
沖揚平,2022/02/27 12:00,280
沖揚平,2022/02/27 13:00,282
沖揚平,2022/02/27 14:00,282
沖揚平,2022/02/27 15:00,282
沖揚平,2022/02/27 16:00,281
沖揚平,2022/02/27 17:00,280
沖揚平,2022/02/27 18:00,280
沖揚平,2022/02/27 19:00,279
沖揚平,2022/02/27 20:00,279
沖揚平,2022/02/27 21:00,278
沖揚平,2022/02/27 22:00,278
沖揚平,2022/02/27 23:00,278
沖揚平,2022/02/28 00:00,276
沖揚平,2022/02/28 01:00,276
沖揚平,2022/02/28 02:00,276
沖揚平,2022/02/28 03:00,275
沖揚平,2022/02/28 04:00,275
沖揚平,2022/02/28 05:00,275
沖揚平,2022/02/28 06:00,274
沖揚平,2022/02/28 07:00,274
沖揚平,2022/02/28 08:00,273
沖揚平,2022/02/28 09:00,273
沖揚平,2022/02/28 10:00,273
沖揚平,2022/02/28 11:00,273
沖揚平,2022/02/28 12:00,273
沖揚平,2022/02/28 13:00,272
沖揚平,2022/02/28 14:00,272
沖揚平,2022/02/28 15:00,271
沖揚平,2022/02/28 16:00,271
沖揚平,2022/02/28 17:00,270
沖揚平,2022/02/28 18:00,270
沖揚平,2022/02/28 19:00,270
沖揚平,2022/02/28 20:00,270
沖揚平,2022/02/28 21:00,269
沖揚平,2022/02/28 22:00,269
沖揚平,2022/02/28 23:00,269
沖揚平,2022/03/01 00:00,268
沖揚平,2022/03/01 01:00,268
沖揚平,2022/03/01 02:00,268
沖揚平,2022/03/01 03:00,268
沖揚平,2022/03/01 04:00,268
沖揚平,2022/03/01 05:00,267
沖揚平,2022/03/01 06:00,267
沖揚平,2022/03/01 07:00,267
沖揚平,2022/03/01 08:00,267
沖揚平,2022/03/01 09:00,266
沖揚平,2022/03/01 10:00,266
沖揚平,2022/03/01 11:00,266
沖揚平,2022/03/01 12:00,266
沖揚平,2022/03/01 13:00,266
沖揚平,2022/03/01 14:00,268
沖揚平,2022/03/01 15:00,269
沖揚平,2022/03/01 16:00,270
沖揚平,2022/03/01 17:00,271
沖揚平,2022/03/01 18:00,272
沖揚平,2022/03/01 19:00,274
沖揚平,2022/03/01 20:00,274
沖揚平,2022/03/01 21:00,274
沖揚平,2022/03/01 22:00,274
沖揚平,2022/03/01 23:00,274
沖揚平,2022/03/02 00:00,274
沖揚平,2022/03/02 01:00,274
沖揚平,2022/03/02 02:00,274
沖揚平,2022/03/02 03:00,274
沖揚平,2022/03/02 04:00,273
沖揚平,2022/03/02 05:00,273
沖揚平,2022/03/02 06:00,273
沖揚平,2022/03/02 07:00,272
沖揚平,2022/03/02 08:00,272
沖揚平,2022/03/02 09:00,272
沖揚平,2022/03/02 10:00,272
沖揚平,2022/03/02 11:00,271
沖揚平,2022/03/02 12:00,271
沖揚平,2022/03/02 13:00,271
沖揚平,2022/03/02 14:00,270
沖揚平,2022/03/02 15:00,270
沖揚平,2022/03/02 16:00,270
沖揚平,2022/03/02 17:00,270
沖揚平,2022/03/02 18:00,269
沖揚平,2022/03/02 19:00,269
沖揚平,2022/03/02 20:00,269
沖揚平,2022/03/02 21:00,268
沖揚平,2022/03/02 22:00,268
沖揚平,2022/03/02 23:00,268
沖揚平,2022/03/03 00:00,268
沖揚平,2022/03/03 01:00,268
沖揚平,2022/03/03 02:00,268
沖揚平,2022/03/03 03:00,267
沖揚平,2022/03/03 04:00,267
沖揚平,2022/03/03 05:00,267
沖揚平,2022/03/03 06:00,268
沖揚平,2022/03/03 07:00,268
沖揚平,2022/03/03 08:00,269
沖揚平,2022/03/03 09:00,271
沖揚平,2022/03/03 10:00,271
沖揚平,2022/03/03 11:00,270
沖揚平,2022/03/03 12:00,269
沖揚平,2022/03/03 13:00,270
沖揚平,2022/03/03 14:00,270
沖揚平,2022/03/03 15:00,272
沖揚平,2022/03/03 16:00,272
沖揚平,2022/03/03 17:00,271
沖揚平,2022/03/03 18:00,271
沖揚平,2022/03/03 19:00,271
沖揚平,2022/03/03 20:00,271
沖揚平,2022/03/03 21:00,272
沖揚平,2022/03/03 22:00,272
沖揚平,2022/03/03 23:00,272
沖揚平,2022/03/04 00:00,274
沖揚平,2022/03/04 01:00,274
沖揚平,2022/03/04 02:00,273
沖揚平,2022/03/04 03:00,273
沖揚平,2022/03/04 04:00,273
沖揚平,2022/03/04 05:00,272
沖揚平,2022/03/04 06:00,272
沖揚平,2022/03/04 07:00,272
沖揚平,2022/03/04 08:00,272
沖揚平,2022/03/04 09:00,271
沖揚平,2022/03/04 10:00,271
沖揚平,2022/03/04 11:00,271
沖揚平,2022/03/04 12:00,270
沖揚平,2022/03/04 13:00,269
沖揚平,2022/03/04 14:00,268
沖揚平,2022/03/04 15:00,268
沖揚平,2022/03/04 16:00,268
沖揚平,2022/03/04 17:00,268
沖揚平,2022/03/04 18:00,268
沖揚平,2022/03/04 19:00,267
沖揚平,2022/03/04 20:00,267
沖揚平,2022/03/04 21:00,267
沖揚平,2022/03/04 22:00,267
沖揚平,2022/03/04 23:00,267
沖揚平,2022/03/05 00:00,266
沖揚平,2022/03/05 01:00,266
沖揚平,2022/03/05 02:00,266
沖揚平,2022/03/05 03:00,266
沖揚平,2022/03/05 04:00,266
沖揚平,2022/03/05 05:00,266
沖揚平,2022/03/05 06:00,266
沖揚平,2022/03/05 07:00,265
沖揚平,2022/03/05 08:00,265
沖揚平,2022/03/05 09:00,265
沖揚平,2022/03/05 10:00,265
沖揚平,2022/03/05 11:00,264
沖揚平,2022/03/05 12:00,263
沖揚平,2022/03/05 13:00,265
沖揚平,2022/03/05 14:00,269
沖揚平,2022/03/05 15:00,273
沖揚平,2022/03/05 16:00,273
沖揚平,2022/03/05 17:00,276
沖揚平,2022/03/05 18:00,278
沖揚平,2022/03/05 19:00,278
沖揚平,2022/03/05 20:00,277
沖揚平,2022/03/05 21:00,277
沖揚平,2022/03/05 22:00,278
沖揚平,2022/03/05 23:00,279
沖揚平,2022/03/06 00:00,280
沖揚平,2022/03/06 01:00,279
沖揚平,2022/03/06 02:00,279
沖揚平,2022/03/06 03:00,278
沖揚平,2022/03/06 04:00,278
沖揚平,2022/03/06 05:00,278
沖揚平,2022/03/06 06:00,278
沖揚平,2022/03/06 07:00,278
沖揚平,2022/03/06 08:00,278
沖揚平,2022/03/06 09:00,278
沖揚平,2022/03/06 10:00,278
沖揚平,2022/03/06 11:00,277
沖揚平,2022/03/06 12:00,277
沖揚平,2022/03/06 13:00,276
沖揚平,2022/03/06 14:00,278
沖揚平,2022/03/06 15:00,280
沖揚平,2022/03/06 16:00,285
沖揚平,2022/03/06 17:00,287
沖揚平,2022/03/06 18:00,288
沖揚平,2022/03/06 19:00,288
沖揚平,2022/03/06 20:00,290
沖揚平,2022/03/06 21:00,290
沖揚平,2022/03/06 22:00,290
沖揚平,2022/03/06 23:00,289
沖揚平,2022/03/07 00:00,288
沖揚平,2022/03/07 01:00,288
沖揚平,2022/03/07 02:00,287
沖揚平,2022/03/07 03:00,287
沖揚平,2022/03/07 04:00,286
沖揚平,2022/03/07 05:00,286
沖揚平,2022/03/07 06:00,286
沖揚平,2022/03/07 07:00,285
沖揚平,2022/03/07 08:00,285
沖揚平,2022/03/07 09:00,285
沖揚平,2022/03/07 10:00,284
沖揚平,2022/03/07 11:00,284
沖揚平,2022/03/07 12:00,284
沖揚平,2022/03/07 13:00,283
沖揚平,2022/03/07 14:00,283
沖揚平,2022/03/07 15:00,283
沖揚平,2022/03/07 16:00,283
沖揚平,2022/03/07 17:00,283
沖揚平,2022/03/07 18:00,282
沖揚平,2022/03/07 19:00,283
沖揚平,2022/03/07 20:00,282
沖揚平,2022/03/07 21:00,282
沖揚平,2022/03/07 22:00,282
沖揚平,2022/03/07 23:00,282
沖揚平,2022/03/08 00:00,282
沖揚平,2022/03/08 01:00,282
沖揚平,2022/03/08 02:00,281
沖揚平,2022/03/08 03:00,281
沖揚平,2022/03/08 04:00,281
沖揚平,2022/03/08 05:00,280
沖揚平,2022/03/08 06:00,280
沖揚平,2022/03/08 07:00,280
沖揚平,2022/03/08 08:00,280
沖揚平,2022/03/08 09:00,280
沖揚平,2022/03/08 10:00,280
沖揚平,2022/03/08 11:00,279
沖揚平,2022/03/08 12:00,279
沖揚平,2022/03/08 13:00,279
沖揚平,2022/03/08 14:00,278
沖揚平,2022/03/08 15:00,278
沖揚平,2022/03/08 16:00,278
沖揚平,2022/03/08 17:00,278
沖揚平,2022/03/08 18:00,278
沖揚平,2022/03/08 19:00,277
沖揚平,2022/03/08 20:00,277
沖揚平,2022/03/08 21:00,277
沖揚平,2022/03/08 22:00,277
沖揚平,2022/03/08 23:00,277
沖揚平,2022/03/09 00:00,277
沖揚平,2022/03/09 01:00,276
沖揚平,2022/03/09 02:00,276
沖揚平,2022/03/09 03:00,276
沖揚平,2022/03/09 04:00,276
沖揚平,2022/03/09 05:00,276
沖揚平,2022/03/09 06:00,276
沖揚平,2022/03/09 07:00,276
沖揚平,2022/03/09 08:00,276
沖揚平,2022/03/09 09:00,275
沖揚平,2022/03/09 10:00,275
沖揚平,2022/03/09 11:00,275
沖揚平,2022/03/09 12:00,275
沖揚平,2022/03/09 13:00,274
沖揚平,2022/03/09 14:00,274
沖揚平,2022/03/09 15:00,274
沖揚平,2022/03/09 16:00,274
沖揚平,2022/03/09 17:00,274
沖揚平,2022/03/09 18:00,274
沖揚平,2022/03/09 19:00,273
沖揚平,2022/03/09 20:00,273
沖揚平,2022/03/09 21:00,273
沖揚平,2022/03/09 22:00,273
沖揚平,2022/03/09 23:00,273
沖揚平,2022/03/10 00:00,273
沖揚平,2022/03/10 01:00,273
沖揚平,2022/03/10 02:00,272
沖揚平,2022/03/10 03:00,272
沖揚平,2022/03/10 04:00,272
沖揚平,2022/03/10 05:00,272
沖揚平,2022/03/10 06:00,272
沖揚平,2022/03/10 07:00,272
沖揚平,2022/03/10 08:00,272
沖揚平,2022/03/10 09:00,272
沖揚平,2022/03/10 10:00,272
沖揚平,2022/03/10 11:00,272
沖揚平,2022/03/10 12:00,271
沖揚平,2022/03/10 13:00,271
沖揚平,2022/03/10 14:00,270
沖揚平,2022/03/10 15:00,270
沖揚平,2022/03/10 16:00,270
沖揚平,2022/03/10 17:00,270
沖揚平,2022/03/10 18:00,270
沖揚平,2022/03/10 19:00,270
沖揚平,2022/03/10 20:00,270
沖揚平,2022/03/10 21:00,270
沖揚平,2022/03/10 22:00,269
沖揚平,2022/03/10 23:00,269
沖揚平,2022/03/11 00:00,269
沖揚平,2022/03/11 01:00,269
沖揚平,2022/03/11 02:00,269
沖揚平,2022/03/11 03:00,269
沖揚平,2022/03/11 04:00,268
沖揚平,2022/03/11 05:00,268
沖揚平,2022/03/11 06:00,268
沖揚平,2022/03/11 07:00,268
沖揚平,2022/03/11 08:00,268
沖揚平,2022/03/11 09:00,268
沖揚平,2022/03/11 10:00,267
沖揚平,2022/03/11 11:00,267
沖揚平,2022/03/11 12:00,266
沖揚平,2022/03/11 13:00,266
沖揚平,2022/03/11 14:00,265
沖揚平,2022/03/11 15:00,264
沖揚平,2022/03/11 16:00,264
沖揚平,2022/03/11 17:00,264
沖揚平,2022/03/11 18:00,263
沖揚平,2022/03/11 19:00,263
沖揚平,2022/03/11 20:00,263
沖揚平,2022/03/11 21:00,262
沖揚平,2022/03/11 22:00,262
沖揚平,2022/03/11 23:00,262
沖揚平,2022/03/12 00:00,262
沖揚平,2022/03/12 01:00,261
沖揚平,2022/03/12 02:00,261
沖揚平,2022/03/12 03:00,261
沖揚平,2022/03/12 04:00,261
沖揚平,2022/03/12 05:00,260
沖揚平,2022/03/12 06:00,260
沖揚平,2022/03/12 07:00,260
沖揚平,2022/03/12 08:00,260
沖揚平,2022/03/12 09:00,259
沖揚平,2022/03/12 10:00,259
沖揚平,2022/03/12 11:00,259
沖揚平,2022/03/12 12:00,259
沖揚平,2022/03/12 13:00,258
沖揚平,2022/03/12 14:00,257
沖揚平,2022/03/12 15:00,257
沖揚平,2022/03/12 16:00,257
沖揚平,2022/03/12 17:00,257
沖揚平,2022/03/12 18:00,256
沖揚平,2022/03/12 19:00,256
沖揚平,2022/03/12 20:00,256
沖揚平,2022/03/12 21:00,256
沖揚平,2022/03/12 22:00,256
沖揚平,2022/03/12 23:00,256
沖揚平,2022/03/13 00:00,256
沖揚平,2022/03/13 01:00,256
沖揚平,2022/03/13 02:00,256
沖揚平,2022/03/13 03:00,255
沖揚平,2022/03/13 04:00,255
沖揚平,2022/03/13 05:00,255
沖揚平,2022/03/13 06:00,255
沖揚平,2022/03/13 07:00,255
沖揚平,2022/03/13 08:00,255
沖揚平,2022/03/13 09:00,255
沖揚平,2022/03/13 10:00,254
沖揚平,2022/03/13 11:00,254
沖揚平,2022/03/13 12:00,256
沖揚平,2022/03/13 13:00,257
沖揚平,2022/03/13 14:00,256
沖揚平,2022/03/13 15:00,255
沖揚平,2022/03/13 16:00,254
沖揚平,2022/03/13 17:00,254
沖揚平,2022/03/13 18:00,254
沖揚平,2022/03/13 19:00,253
沖揚平,2022/03/13 20:00,253
沖揚平,2022/03/13 21:00,253
沖揚平,2022/03/13 22:00,252
沖揚平,2022/03/13 23:00,252
沖揚平,2022/03/14 00:00,252
沖揚平,2022/03/14 01:00,252
沖揚平,2022/03/14 02:00,252
沖揚平,2022/03/14 03:00,251
沖揚平,2022/03/14 04:00,251
沖揚平,2022/03/14 05:00,251
沖揚平,2022/03/14 06:00,251
沖揚平,2022/03/14 07:00,250
沖揚平,2022/03/14 08:00,250
沖揚平,2022/03/14 09:00,250
沖揚平,2022/03/14 10:00,249
沖揚平,2022/03/14 11:00,249
沖揚平,2022/03/14 12:00,249
沖揚平,2022/03/14 13:00,247
沖揚平,2022/03/14 14:00,247
沖揚平,2022/03/14 15:00,246
沖揚平,2022/03/14 16:00,246
沖揚平,2022/03/14 17:00,245
沖揚平,2022/03/14 18:00,245
沖揚平,2022/03/14 19:00,245
沖揚平,2022/03/14 20:00,245
沖揚平,2022/03/14 21:00,245
沖揚平,2022/03/14 22:00,245
沖揚平,2022/03/14 23:00,244
沖揚平,2022/03/15 00:00,244
沖揚平,2022/03/15 01:00,244
沖揚平,2022/03/15 02:00,244
沖揚平,2022/03/15 03:00,243
沖揚平,2022/03/15 04:00,244
沖揚平,2022/03/15 05:00,242
沖揚平,2022/03/15 06:00,240
沖揚平,2022/03/15 07:00,239
沖揚平,2022/03/15 08:00,239
沖揚平,2022/03/15 09:00,238
沖揚平,2022/03/15 10:00,238
沖揚平,2022/03/15 11:00,238
沖揚平,2022/03/15 12:00,237
沖揚平,2022/03/15 13:00,236
沖揚平,2022/03/15 14:00,236
沖揚平,2022/03/15 15:00,235
沖揚平,2022/03/15 16:00,236
沖揚平,2022/03/15 17:00,238
沖揚平,2022/03/15 18:00,238
沖揚平,2022/03/15 19:00,240
沖揚平,2022/03/15 20:00,240
沖揚平,2022/03/15 21:00,240
沖揚平,2022/03/15 22:00,240
沖揚平,2022/03/15 23:00,240
沖揚平,2022/03/16 00:00,240
沖揚平,2022/03/16 01:00,240
沖揚平,2022/03/16 02:00,240
沖揚平,2022/03/16 03:00,240
沖揚平,2022/03/16 04:00,240
沖揚平,2022/03/16 05:00,240
沖揚平,2022/03/16 06:00,240
沖揚平,2022/03/16 07:00,240
沖揚平,2022/03/16 08:00,240
沖揚平,2022/03/16 09:00,240
沖揚平,2022/03/16 10:00,239
沖揚平,2022/03/16 11:00,239
沖揚平,2022/03/16 12:00,238
沖揚平,2022/03/16 13:00,237
沖揚平,2022/03/16 14:00,236
沖揚平,2022/03/16 15:00,236
沖揚平,2022/03/16 16:00,236
沖揚平,2022/03/16 17:00,235
沖揚平,2022/03/16 18:00,235
沖揚平,2022/03/16 19:00,235
沖揚平,2022/03/16 20:00,235
沖揚平,2022/03/16 21:00,235
沖揚平,2022/03/16 22:00,235
沖揚平,2022/03/16 23:00,235
沖揚平,2022/03/17 00:00,236
沖揚平,2022/03/17 01:00,236
沖揚平,2022/03/17 02:00,236
沖揚平,2022/03/17 03:00,236
沖揚平,2022/03/17 04:00,237
沖揚平,2022/03/17 05:00,237
沖揚平,2022/03/17 06:00,237
沖揚平,2022/03/17 07:00,237
沖揚平,2022/03/17 08:00,238
沖揚平,2022/03/17 09:00,237
沖揚平,2022/03/17 10:00,237
沖揚平,2022/03/17 11:00,238
沖揚平,2022/03/17 12:00,238
沖揚平,2022/03/17 13:00,238
沖揚平,2022/03/17 14:00,238
沖揚平,2022/03/17 15:00,238
沖揚平,2022/03/17 16:00,238
沖揚平,2022/03/17 17:00,239
沖揚平,2022/03/17 18:00,239
沖揚平,2022/03/17 19:00,239
沖揚平,2022/03/17 20:00,239
沖揚平,2022/03/17 21:00,238
沖揚平,2022/03/17 22:00,238
沖揚平,2022/03/17 23:00,238
沖揚平,2022/03/18 00:00,238
沖揚平,2022/03/18 01:00,238
沖揚平,2022/03/18 02:00,238
沖揚平,2022/03/18 03:00,238
沖揚平,2022/03/18 04:00,238
沖揚平,2022/03/18 05:00,238
沖揚平,2022/03/18 06:00,238
沖揚平,2022/03/18 07:00,237
沖揚平,2022/03/18 08:00,237
沖揚平,2022/03/18 09:00,237
沖揚平,2022/03/18 10:00,237
沖揚平,2022/03/18 11:00,237
沖揚平,2022/03/18 12:00,236
沖揚平,2022/03/18 13:00,236
沖揚平,2022/03/18 14:00,236
沖揚平,2022/03/18 15:00,236
沖揚平,2022/03/18 16:00,236
沖揚平,2022/03/18 17:00,235
沖揚平,2022/03/18 18:00,235
沖揚平,2022/03/18 19:00,235
沖揚平,2022/03/18 20:00,236
沖揚平,2022/03/18 21:00,236
沖揚平,2022/03/18 22:00,237
沖揚平,2022/03/18 23:00,237
沖揚平,2022/03/19 00:00,235
沖揚平,2022/03/19 01:00,236
沖揚平,2022/03/19 02:00,234
沖揚平,2022/03/19 03:00,235
沖揚平,2022/03/19 04:00,248
沖揚平,2022/03/19 05:00,249
沖揚平,2022/03/19 06:00,249
沖揚平,2022/03/19 07:00,259
沖揚平,2022/03/19 08:00,260
沖揚平,2022/03/19 09:00,261
沖揚平,2022/03/19 10:00,261
沖揚平,2022/03/19 11:00,260
沖揚平,2022/03/19 12:00,260
沖揚平,2022/03/19 13:00,260
沖揚平,2022/03/19 14:00,259
沖揚平,2022/03/19 15:00,260
沖揚平,2022/03/19 16:00,260
沖揚平,2022/03/19 17:00,260
沖揚平,2022/03/19 18:00,260
沖揚平,2022/03/19 19:00,260
沖揚平,2022/03/19 20:00,260
沖揚平,2022/03/19 21:00,260
沖揚平,2022/03/19 22:00,260
沖揚平,2022/03/19 23:00,260
沖揚平,2022/03/20 00:00,260
沖揚平,2022/03/20 01:00,260
沖揚平,2022/03/20 02:00,260
沖揚平,2022/03/20 03:00,260
沖揚平,2022/03/20 04:00,261
沖揚平,2022/03/20 05:00,262
沖揚平,2022/03/20 06:00,262
沖揚平,2022/03/20 07:00,262
沖揚平,2022/03/20 08:00,263
沖揚平,2022/03/20 09:00,263
沖揚平,2022/03/20 10:00,263
沖揚平,2022/03/20 11:00,264
沖揚平,2022/03/20 12:00,265
沖揚平,2022/03/20 13:00,265
沖揚平,2022/03/20 14:00,266
沖揚平,2022/03/20 15:00,268
沖揚平,2022/03/20 16:00,269
沖揚平,2022/03/20 17:00,270
沖揚平,2022/03/20 18:00,271
沖揚平,2022/03/20 19:00,271
沖揚平,2022/03/20 20:00,271
沖揚平,2022/03/20 21:00,271
沖揚平,2022/03/20 22:00,270
沖揚平,2022/03/20 23:00,270
沖揚平,2022/03/21 00:00,270
沖揚平,2022/03/21 02:00,270
沖揚平,2022/03/21 03:00,269
沖揚平,2022/03/21 04:00,269
沖揚平,2022/03/21 05:00,269
沖揚平,2022/03/21 06:00,270
沖揚平,2022/03/21 07:00,270
沖揚平,2022/03/21 08:00,270
沖揚平,2022/03/21 09:00,270
沖揚平,2022/03/21 10:00,270
沖揚平,2022/03/21 11:00,269
沖揚平,2022/03/21 12:00,269
沖揚平,2022/03/21 13:00,269
沖揚平,2022/03/21 14:00,269
沖揚平,2022/03/21 15:00,269
沖揚平,2022/03/21 16:00,269
沖揚平,2022/03/21 17:00,269
沖揚平,2022/03/21 18:00,268
沖揚平,2022/03/21 19:00,268
沖揚平,2022/03/21 20:00,268
沖揚平,2022/03/21 21:00,268
沖揚平,2022/03/21 22:00,268
沖揚平,2022/03/21 23:00,268
沖揚平,2022/03/22 00:00,267
沖揚平,2022/03/22 01:00,267
沖揚平,2022/03/22 02:00,267
沖揚平,2022/03/22 03:00,267
沖揚平,2022/03/22 04:00,267
沖揚平,2022/03/22 05:00,267
沖揚平,2022/03/22 06:00,267
沖揚平,2022/03/22 07:00,267
沖揚平,2022/03/22 08:00,266
沖揚平,2022/03/22 09:00,266
沖揚平,2022/03/22 10:00,266
沖揚平,2022/03/22 11:00,266
沖揚平,2022/03/22 12:00,265
沖揚平,2022/03/22 13:00,264
沖揚平,2022/03/22 14:00,264
沖揚平,2022/03/22 15:00,263
沖揚平,2022/03/22 16:00,263
沖揚平,2022/03/22 17:00,263
沖揚平,2022/03/22 18:00,263
沖揚平,2022/03/22 19:00,263
沖揚平,2022/03/22 20:00,263
沖揚平,2022/03/22 21:00,263
沖揚平,2022/03/22 22:00,262
沖揚平,2022/03/22 23:00,262
沖揚平,2022/03/23 00:00,262
沖揚平,2022/03/23 01:00,262
沖揚平,2022/03/23 02:00,262
沖揚平,2022/03/23 03:00,262
沖揚平,2022/03/23 04:00,262
沖揚平,2022/03/23 05:00,262
沖揚平,2022/03/23 06:00,262
沖揚平,2022/03/23 07:00,262
沖揚平,2022/03/23 08:00,262
沖揚平,2022/03/23 09:00,262
沖揚平,2022/03/23 10:00,262
沖揚平,2022/03/23 11:00,261
沖揚平,2022/03/23 12:00,261
沖揚平,2022/03/23 13:00,260
沖揚平,2022/03/23 14:00,259
沖揚平,2022/03/23 15:00,259
沖揚平,2022/03/23 16:00,259
沖揚平,2022/03/23 17:00,259
沖揚平,2022/03/23 18:00,259
沖揚平,2022/03/23 19:00,259
沖揚平,2022/03/23 21:00,258
沖揚平,2022/03/23 22:00,258
沖揚平,2022/03/23 23:00,258
沖揚平,2022/03/24 00:00,258
沖揚平,2022/03/24 01:00,258
沖揚平,2022/03/24 02:00,258
沖揚平,2022/03/24 03:00,258
沖揚平,2022/03/24 04:00,258
沖揚平,2022/03/24 05:00,258
沖揚平,2022/03/24 06:00,258
沖揚平,2022/03/24 07:00,258
沖揚平,2022/03/24 08:00,258
沖揚平,2022/03/24 09:00,258
沖揚平,2022/03/24 10:00,258
沖揚平,2022/03/24 11:00,258
沖揚平,2022/03/24 12:00,257
沖揚平,2022/03/24 13:00,257
沖揚平,2022/03/24 14:00,256
沖揚平,2022/03/24 15:00,256
沖揚平,2022/03/24 16:00,257
沖揚平,2022/03/24 17:00,257
沖揚平,2022/03/24 18:00,258
沖揚平,2022/03/24 19:00,258
沖揚平,2022/03/24 20:00,258
沖揚平,2022/03/24 21:00,258
沖揚平,2022/03/24 22:00,258
沖揚平,2022/03/24 23:00,258
沖揚平,2022/03/25 00:00,258
沖揚平,2022/03/25 01:00,258
沖揚平,2022/03/25 02:00,258
沖揚平,2022/03/25 03:00,258
沖揚平,2022/03/25 04:00,258
沖揚平,2022/03/25 05:00,258
沖揚平,2022/03/25 06:00,258
沖揚平,2022/03/25 07:00,258
沖揚平,2022/03/25 08:00,258
沖揚平,2022/03/25 09:00,258
沖揚平,2022/03/25 10:00,257
沖揚平,2022/03/25 11:00,256
沖揚平,2022/03/25 12:00,255
沖揚平,2022/03/25 13:00,254
沖揚平,2022/03/25 14:00,253
沖揚平,2022/03/25 15:00,252
沖揚平,2022/03/25 16:00,251
沖揚平,2022/03/25 17:00,251
沖揚平,2022/03/25 18:00,250
沖揚平,2022/03/25 19:00,250
沖揚平,2022/03/25 20:00,250
沖揚平,2022/03/25 21:00,250
沖揚平,2022/03/25 22:00,250
沖揚平,2022/03/25 23:00,250
沖揚平,2022/03/26 00:00,250
沖揚平,2022/03/26 01:00,250
沖揚平,2022/03/26 02:00,250
沖揚平,2022/03/26 03:00,250
沖揚平,2022/03/26 04:00,250
沖揚平,2022/03/26 05:00,250
沖揚平,2022/03/26 06:00,249
沖揚平,2022/03/26 07:00,249
沖揚平,2022/03/26 08:00,249
沖揚平,2022/03/26 09:00,249
沖揚平,2022/03/26 10:00,249
沖揚平,2022/03/26 11:00,249
沖揚平,2022/03/26 12:00,248
沖揚平,2022/03/26 13:00,247
沖揚平,2022/03/26 14:00,247
沖揚平,2022/03/26 15:00,246
沖揚平,2022/03/26 16:00,245
沖揚平,2022/03/26 17:00,244
沖揚平,2022/03/26 18:00,243
沖揚平,2022/03/26 19:00,241
沖揚平,2022/03/26 20:00,240
沖揚平,2022/03/26 21:00,239
沖揚平,2022/03/26 22:00,238
沖揚平,2022/03/26 23:00,237
沖揚平,2022/03/27 00:00,235
沖揚平,2022/03/27 01:00,234
沖揚平,2022/03/27 02:00,232
沖揚平,2022/03/27 03:00,231
沖揚平,2022/03/27 04:00,231
沖揚平,2022/03/27 05:00,230
沖揚平,2022/03/27 06:00,230
沖揚平,2022/03/27 07:00,230
沖揚平,2022/03/27 08:00,229
沖揚平,2022/03/27 09:00,229
沖揚平,2022/03/27 10:00,229
沖揚平,2022/03/27 11:00,229
沖揚平,2022/03/27 12:00,228
沖揚平,2022/03/27 13:00,228
沖揚平,2022/03/27 14:00,227
沖揚平,2022/03/27 15:00,227
沖揚平,2022/03/27 16:00,226
沖揚平,2022/03/27 17:00,227
沖揚平,2022/03/27 18:00,227
沖揚平,2022/03/27 20:00,226
沖揚平,2022/03/27 21:00,226
沖揚平,2022/03/27 22:00,226
沖揚平,2022/03/27 23:00,226
沖揚平,2022/03/28 00:00,226
沖揚平,2022/03/28 01:00,226
沖揚平,2022/03/28 02:00,226
沖揚平,2022/03/28 03:00,230
沖揚平,2022/03/28 04:00,230
沖揚平,2022/03/28 05:00,232
沖揚平,2022/03/28 06:00,232
沖揚平,2022/03/28 07:00,232
沖揚平,2022/03/28 08:00,232
沖揚平,2022/03/28 09:00,232
沖揚平,2022/03/28 10:00,231
沖揚平,2022/03/28 11:00,231
沖揚平,2022/03/28 13:00,230
沖揚平,2022/03/28 14:00,230
沖揚平,2022/03/28 15:00,230
沖揚平,2022/03/28 16:00,230
沖揚平,2022/03/28 17:00,230
沖揚平,2022/03/28 18:00,230
沖揚平,2022/03/28 19:00,230
沖揚平,2022/03/28 20:00,230
沖揚平,2022/03/28 21:00,230
沖揚平,2022/03/28 22:00,230
沖揚平,2022/03/28 23:00,230
沖揚平,2022/03/29 00:00,230
沖揚平,2022/03/29 01:00,230
沖揚平,2022/03/29 02:00,230
沖揚平,2022/03/29 03:00,230
沖揚平,2022/03/29 04:00,230
沖揚平,2022/03/29 05:00,230
沖揚平,2022/03/29 06:00,230
沖揚平,2022/03/29 07:00,230
沖揚平,2022/03/29 08:00,230
沖揚平,2022/03/29 09:00,230
沖揚平,2022/03/29 10:00,230
沖揚平,2022/03/29 11:00,229
沖揚平,2022/03/29 12:00,227
沖揚平,2022/03/29 13:00,226
沖揚平,2022/03/29 14:00,226
沖揚平,2022/03/29 15:00,225
沖揚平,2022/03/29 16:00,225
沖揚平,2022/03/29 17:00,225
沖揚平,2022/03/29 18:00,225
沖揚平,2022/03/29 19:00,225
沖揚平,2022/03/29 20:00,225
沖揚平,2022/03/29 21:00,225
沖揚平,2022/03/29 22:00,225
沖揚平,2022/03/29 23:00,225
沖揚平,2022/03/30 00:00,225
沖揚平,2022/03/30 01:00,225
沖揚平,2022/03/30 02:00,225
沖揚平,2022/03/30 03:00,224
沖揚平,2022/03/30 04:00,224
沖揚平,2022/03/30 05:00,224
沖揚平,2022/03/30 06:00,224
沖揚平,2022/03/30 07:00,224
沖揚平,2022/03/30 08:00,224
沖揚平,2022/03/30 09:00,224
沖揚平,2022/03/30 10:00,223
沖揚平,2022/03/30 11:00,222
沖揚平,2022/03/30 12:00,221
沖揚平,2022/03/30 13:00,221
沖揚平,2022/03/30 14:00,220
沖揚平,2022/03/30 15:00,219
沖揚平,2022/03/30 16:00,219
沖揚平,2022/03/30 17:00,218
沖揚平,2022/03/30 18:00,218
沖揚平,2022/03/30 19:00,218
沖揚平,2022/03/30 20:00,218
沖揚平,2022/03/30 21:00,218
沖揚平,2022/03/30 22:00,218
沖揚平,2022/03/30 23:00,218
沖揚平,2022/03/31 00:00,217
沖揚平,2022/03/31 01:00,218
沖揚平,2022/03/31 02:00,217
沖揚平,2022/03/31 03:00,217
沖揚平,2022/03/31 04:00,217
沖揚平,2022/03/31 05:00,217
沖揚平,2022/03/31 06:00,217
沖揚平,2022/03/31 07:00,217
沖揚平,2022/03/31 08:00,217
沖揚平,2022/03/31 09:00,217
沖揚平,2022/03/31 10:00,217
沖揚平,2022/03/31 11:00,217
沖揚平,2022/03/31 12:00,217
沖揚平,2022/03/31 13:00,217
沖揚平,2022/03/31 14:00,217
沖揚平,2022/03/31 15:00,216
沖揚平,2022/03/31 16:00,216
沖揚平,2022/03/31 17:00,216
沖揚平,2022/03/31 18:00,216
沖揚平,2022/03/31 19:00,216
沖揚平,2022/03/31 20:00,216
沖揚平,2022/03/31 21:00,217
沖揚平,2022/03/31 22:00,216
沖揚平,2022/03/31 23:00,216
沖揚平,2022/04/01 00:00,216
沖揚平,2022/04/01 01:00,216
沖揚平,2022/04/01 02:00,216
沖揚平,2022/04/01 03:00,216
沖揚平,2022/04/01 04:00,216
沖揚平,2022/04/01 05:00,218
沖揚平,2022/04/01 06:00,218
沖揚平,2022/04/01 07:00,218
沖揚平,2022/04/01 08:00,219
沖揚平,2022/04/01 09:00,219
沖揚平,2022/04/01 10:00,219
沖揚平,2022/04/01 11:00,219
沖揚平,2022/04/01 12:00,218
沖揚平,2022/04/01 13:00,218
沖揚平,2022/04/01 14:00,218
沖揚平,2022/04/01 15:00,218
沖揚平,2022/04/01 16:00,218
沖揚平,2022/04/01 17:00,218
沖揚平,2022/04/01 18:00,218
沖揚平,2022/04/01 19:00,218
沖揚平,2022/04/01 20:00,218
沖揚平,2022/04/01 21:00,218
沖揚平,2022/04/01 22:00,218
沖揚平,2022/04/01 23:00,218
沖揚平,2022/04/02 00:00,218
沖揚平,2022/04/02 01:00,220
沖揚平,2022/04/02 02:00,221
沖揚平,2022/04/02 03:00,221
沖揚平,2022/04/02 04:00,221
沖揚平,2022/04/02 05:00,221
沖揚平,2022/04/02 06:00,220
沖揚平,2022/04/02 07:00,220
沖揚平,2022/04/02 08:00,220
沖揚平,2022/04/02 09:00,220
沖揚平,2022/04/02 10:00,220
沖揚平,2022/04/02 11:00,218
沖揚平,2022/04/02 12:00,217
沖揚平,2022/04/02 13:00,216
沖揚平,2022/04/02 14:00,216
沖揚平,2022/04/02 15:00,216
沖揚平,2022/04/02 16:00,216
沖揚平,2022/04/02 17:00,216
沖揚平,2022/04/02 18:00,216
沖揚平,2022/04/02 19:00,216
沖揚平,2022/04/02 20:00,216
沖揚平,2022/04/02 21:00,216
沖揚平,2022/04/02 22:00,216
沖揚平,2022/04/02 23:00,216
沖揚平,2022/04/03 00:00,216
沖揚平,2022/04/03 01:00,216
沖揚平,2022/04/03 02:00,216
沖揚平,2022/04/03 03:00,216
沖揚平,2022/04/03 04:00,216
沖揚平,2022/04/03 05:00,216
沖揚平,2022/04/03 06:00,216
沖揚平,2022/04/03 07:00,216
沖揚平,2022/04/03 08:00,216
沖揚平,2022/04/03 09:00,216
沖揚平,2022/04/03 10:00,216
沖揚平,2022/04/03 11:00,215
沖揚平,2022/04/03 12:00,214
沖揚平,2022/04/03 13:00,214
沖揚平,2022/04/03 14:00,212
沖揚平,2022/04/03 15:00,212
沖揚平,2022/04/03 16:00,212
沖揚平,2022/04/03 17:00,212
沖揚平,2022/04/03 18:00,212
沖揚平,2022/04/03 19:00,212
沖揚平,2022/04/03 20:00,212
沖揚平,2022/04/03 21:00,212
沖揚平,2022/04/03 22:00,212
沖揚平,2022/04/03 23:00,212
沖揚平,2022/04/04 00:00,212
沖揚平,2022/04/04 01:00,212
沖揚平,2022/04/04 02:00,212
沖揚平,2022/04/04 03:00,212
沖揚平,2022/04/04 04:00,212
沖揚平,2022/04/04 05:00,212
沖揚平,2022/04/04 07:00,212
沖揚平,2022/04/04 08:00,212
沖揚平,2022/04/04 09:00,211
沖揚平,2022/04/04 10:00,211
沖揚平,2022/04/04 11:00,210
沖揚平,2022/04/04 12:00,210
沖揚平,2022/04/04 13:00,210
沖揚平,2022/04/04 14:00,209
沖揚平,2022/04/04 15:00,208
沖揚平,2022/04/04 16:00,208
沖揚平,2022/04/04 17:00,208
沖揚平,2022/04/04 18:00,208
沖揚平,2022/04/04 19:00,208
沖揚平,2022/04/04 20:00,208
沖揚平,2022/04/04 21:00,208
沖揚平,2022/04/04 22:00,208
沖揚平,2022/04/04 23:00,208
沖揚平,2022/04/05 00:00,208
沖揚平,2022/04/05 01:00,208
沖揚平,2022/04/05 02:00,208
沖揚平,2022/04/05 03:00,208
沖揚平,2022/04/05 04:00,207
沖揚平,2022/04/05 05:00,208
沖揚平,2022/04/05 06:00,207
沖揚平,2022/04/05 07:00,207
沖揚平,2022/04/05 08:00,207
沖揚平,2022/04/05 09:00,207
沖揚平,2022/04/05 10:00,207
沖揚平,2022/04/05 11:00,205
沖揚平,2022/04/05 12:00,204
沖揚平,2022/04/05 13:00,203
沖揚平,2022/04/05 14:00,202
沖揚平,2022/04/05 15:00,201
沖揚平,2022/04/05 16:00,200
沖揚平,2022/04/05 17:00,199
沖揚平,2022/04/05 18:00,199
沖揚平,2022/04/05 19:00,199
沖揚平,2022/04/05 20:00,199
沖揚平,2022/04/05 21:00,199
沖揚平,2022/04/05 22:00,199
沖揚平,2022/04/05 23:00,199
沖揚平,2022/04/06 00:00,199
沖揚平,2022/04/06 01:00,198
沖揚平,2022/04/06 02:00,198
沖揚平,2022/04/06 03:00,198
沖揚平,2022/04/06 04:00,197
沖揚平,2022/04/06 05:00,197
沖揚平,2022/04/06 06:00,197
沖揚平,2022/04/06 07:00,197
沖揚平,2022/04/06 08:00,196
沖揚平,2022/04/06 09:00,196
沖揚平,2022/04/06 10:00,195
沖揚平,2022/04/06 11:00,194
沖揚平,2022/04/06 12:00,193
沖揚平,2022/04/06 13:00,193